Regional Weather Roundup
Issued by NWS Newport/Morehead, NC

Current Version | Previous Version | Graphics & Text | Print | Product List | Glossary Off
Versions: 1 2 3 4 5 6 7 8 9 10 11 12 13 14 15 16 17 18 19 20 21 22 23 24 25 26 27 28 29 30 31 32 33 34 35 36 37 38 39 40 41 42 43 44 45 46 47 48 49 50

000
ASUS42 KMHX 271527
RWRMHX
WEATHER ROUNDUP FOR EASTERN NORTH CAROLINA
NATIONAL WEATHER SERVICE NEWPORT/MOREHEAD CITY NC
1000 AM EST FRI FEB 27 2015

NOTE: "FAIR" INDICATES FEW OR NO CLOUDS BELOW 12,000 FEET
WITH NO SIGNIFICANT WEATHER AND/OR OBSTRUCTIONS TO VISIBILITY

NCZ015>017-031-032-045>047-102-103-271600-
NORTH COAST

CITY           SKY/WX    TMP DP  RH WIND       PRES   REMARKS
EDENTON        SUNNY     37  28  71 N6        30.37S
ELIZABETH CITY SUNNY     36  26  67 N6        30.37R
KITTY HAWK     SUNNY     38  31  76 N7        30.34R
MANTEO         SUNNY     39  27  60 N12       30.35S

$$

NCZ045>047-081-094-103-104-271600-
CENTRAL COAST

CITY           SKY/WX    TMP DP  RH WIND       PRES   REMARKS
FRISCO         PTSUNNY   38  32  79 VRB6      30.33R
SWANQUARTER      N/A     37 N/A N/A NE10      30.30S

$$

NCZ095-097-098-100-101-271600-
SOUTHERN COAST

CITY           SKY/WX    TMP DP  RH WIND       PRES   REMARKS
BEAUFORT       PTSUNNY   39  28  64 N16       30.34R
CEDAR ISLAND     N/A     36 N/A N/A NW12      30.39R
JACKSONVILLE   PTSUNNY   39  28  64 N10       30.36R
PINEY ISLAND     N/A    N/A N/A N/A MISG      30.34S
WILMINGTON     PTSUNNY   40  30  67 NE9       30.35R


$$

NCZ011>013-027>030-043-044-078>080-089-090>093-098-271600-
COASTAL PLAIN

CITY           SKY/WX    TMP DP  RH WIND       PRES   REMARKS
AHOSKIE        SUNNY     33  29  84 CALM      30.37S
CLINTON        SUNNY     39  32  77 NE6       30.37S
ELIZABETHTOWN  MOSUNNY   40  32  72 N3        30.37R
GOLDSBORO      SUNNY     39  38  97 CALM      30.35R
GREENVILLE     SUNNY     37  32  81 CALM      30.37S
HAVELOCK       PTSUNNY   40  28  62 NE10      30.36R
KENANSVILLE    MOSUNNY   39  32  76 N3        30.38R
KINSTON        SUNNY     39  34  81 N3        30.37R
NEW BERN       MOSUNNY   37  28  70 N8        30.37R
RICHLANDS      MOSUNNY   39  28  65 N8        30.37R
ROCKY MOUNT    SUNNY     35  31  85 NW7       30.37R
WASHINGTON     SUNNY     38  29  72 N6        30.37S
WHITEVILLE     MOSUNNY   38  32  76 N5        30.36R

$$

AMZ130-135-150-152-154-156-158-170-250-252-270-ANZ085-086-088-633-658-670-271600-
MARINE OBSERVATIONS

STATION/POSITION TIME  TEMP    WIND        PRES    WAVE   SWELL
                       AIR SEA DIR/SP/G            HT/PER HT/PER
                 (UTC) (F)     (DEG/KT/KT) (MB)    (FT/S) (FT/S)
CHESAPEAKE LIGHT 1500   33      10/  5/  5 1028.7
64 E VA BEACH    1450   42 59   10/ 16/ 19 1026.4    8/11   7/11
DUCK             1500   34 34  350/ 11/ 12 1026.9
2 E DUCK         1411      35                N/A     6/11   3/11
10 NE DUCK       1422      36                N/A     7/12   3/12
OREGON INLET     1500   36 36  340/ 11/ 14 1027.5
HATTERAS CG      1500   35 40  350/ 15/ 18 1027.4
CAPE LOOKOUT     1500   38      10/ 13/ 15 1027.2
BEAUFORT LAB     1500   38 39   20/ 10/ 15 1026.4
27 SE WRIGHTSVLE NOT AVBL
5 SE WRIGHTSVLE  NOT AVBL
225 S CAPE HAT   1450   62 70  340/ 12/ 16 1022.9   10/11  10/11
41 SE CHARLESTON 1450   47 66   20/ 17/ 21 1026.0    5/ 8   3/ 8

$$



USA.gov is the U.S. government's official web portal to all federal, state and local government web resources and services.